EW3090 Weather Reports


time (UTC)temp
C
wind
direction
speed
KPH
gust
KPH
rain 1hr
cm
rain 24hr
cm
rain mn
cm
humidity
%
barometer
mb
20260503184544 15 82 1.6 27.4 0.00 0.00 0.00 44 1015.3
20260503183039 15 30 4.8 29.0 0.00 0.00 0.00 41 1015.4
20260503181539 15 46 0.0 0.0 0.00 0.00 0.00 41 1015.6
20260503180036 15 74 0.0 1.6 0.00 0.00 0.00 41 1015.9
20260503174534 16 56 16.1 30.6 0.00 0.00 0.00 43 1016.2
20260503173029 15 78 0.0 25.7 0.00 0.00 0.00 44 1016.3
20260503171529 15 17 17.7 33.8 0.00 0.00 0.00 40 1016.5
20260503100108 3 30 0.0 0.0 0.00 0.00 0.00 73 1017.6
20260503081555 3 29 0.0 8.0 0.00 0.00 0.00 72 1017.8
20260503071538 3 47 0.0 0.0 0.00 0.00 0.00 75 1017.8
20260503054550 2 181 0.0 0.0 0.00 0.00 0.00 75 1018.4
20260503053037 2 181 0.0 0.0 0.00 0.00 0.00 74 1018.5
20260503051527 3 181 0.0 0.0 0.00 0.00 0.00 74 1018.5
20260503050026 3 181 0.0 0.0 0.00 0.00 0.00 74 1018.6
20260503044523 3 181 0.0 0.0 0.00 0.00 0.00 73 1018.6
20260503043025 3 181 0.0 0.0 0.00 0.00 0.00 73 1018.5
20260503041521 3 181 0.0 0.0 0.00 0.00 0.00 73 1018.6
20260503040031 3 181 0.0 0.0 0.00 0.00 0.00 74 1018.6
20260503034516 3 181 0.0 0.0 0.00 0.00 0.00 74 1018.6
20260503033016 3 181 0.0 0.0 0.00 0.00 0.00 73 1018.6
20260503031513 3 180 0.0 0.0 0.00 0.00 0.00 72 1018.7
20260503030011 4 180 0.0 0.0 0.00 0.00 0.00 71 1018.7
20260503024507 4 180 0.0 0.0 0.00 0.00 0.00 68 1018.7
20260503023003 5 180 0.0 0.0 0.00 0.00 0.00 69 1018.7
20260503021600 5 180 0.0 0.0 0.00 0.00 0.00 65 1018.5
20260503020057 6 180 0.0 0.0 0.00 0.00 0.00 63 1018.4
20260503014558 6 181 0.0 0.0 0.00 0.00 0.00 62 1018.4
20260503013048 7 180 0.0 0.0 0.00 0.00 0.00 59 1018.4
20260503011545 7 180 0.0 0.0 0.00 0.00 0.00 56 1018.3
20260503010042 7 180 0.0 0.0 0.00 0.00 0.00 55 1018.3
20260503004540 8 180 0.0 0.0 0.00 0.00 0.00 54 1018.2
20260503003007 8 180 0.0 0.0 0.00 0.00 0.00 51 1018.1
20260503001508 9 180 0.0 0.0 0.00 0.00 0.00 49 1017.9
20260503000005 9 180 0.0 0.0 0.00 0.00 0.00 48 1017.9
20260502234512 9 165 0.0 0.0 0.00 0.00 0.00 46 1017.8
20260502233004 10 146 0.0 0.0 0.00 0.00 0.00 46 1017.8
20260502230002 10 150 0.0 0.0 0.00 0.00 0.00 47 1017.9
20260502224600 10 173 0.0 0.0 0.00 0.00 0.00 49 1017.9
20260502223101 9 162 0.0 0.0 0.00 0.00 0.00 48 1018.1
20260502220001 10 147 0.0 0.0 0.00 0.00 0.00 47 1018.1
20260502214559 10 144 0.0 0.0 0.00 0.00 0.00 48 1018.2
20260502213108 10 146 0.0 0.0 0.00 0.00 0.00 48 1018.2
20260502210046 10 188 0.0 0.0 0.00 0.00 0.00 47 1018.1
20260502204546 10 143 0.0 0.0 0.00 0.00 0.00 47 1018.2
20260502203046 10 149 1.6 8.0 0.00 0.00 0.00 50 1018.2
20260502201549 9 168 0.0 0.0 0.00 0.00 0.00 53 1018.2
20260502200014 9 173 0.0 0.0 0.00 0.00 0.00 51 1018.5
20260502194513 9 165 4.8 19.3 0.00 0.00 0.00 50 1018.6
20260502193010 9 149 0.0 0.0 0.00 0.00 0.00 54 1018.7
20260502191517 10 140 0.0 0.0 0.00 0.00 0.00 50 1018.7